[[{"header":{"parameterUnit":"m.s-1","parameterCategory":1,"la1":30.2991,"la2":30.254,"lo1":-89.0895,"lo2":-89.0444,"dy":0.0017,"dx":0.0017,"nx":28,"ny":28,"refTime":"2024-06-03T03:00:00:Z","depth":0,"parameterNumber":2,"parameterNumberName":"U-component_of_WINDS"},"data":[0,0,0,0,0,0,0,0,0,0,0,0,0,0,0,0,0,0,0,0,0,0,0,0,0,0,0,0,0,0,0,0,0,0,0,0,0,0,0,0,0,0,0,0,0,0,0,0,0,0,0,0,0,0,0,0,0,0,-2.374,-2.374,0,-2.3776,-2.3776,-2.3777,-2.3762,-2.3761,-2.3761,-2.376,-2.3794,-2.3796,-2.3798,0,0,0,0,0,0,0,0,0,0,0,0,0,-2.3656,-2.3658,-2.374,-2.374,-2.3741,-2.3776,-2.3776,-2.3777,-2.3762,-2.3761,-2.376,-2.3759,-2.3794,-2.3796,-2.3798,0,0,0,0,0,0,0,0,0,0,0,0,0,-2.3692,-2.3659,-2.374,-2.3738,-2.3738,-2.3776,-2.3776,-2.3777,-2.3763,-2.3761,-2.376,-2.3759,-2.3793,-2.3796,-2.3798,-2.3839,0,0,-2.3806,-2.3807,0,0,0,0,0,0,0,0,-2.369,-2.3695,-2.3738,-2.3738,-2.3738,-2.3763,-2.3759,-2.3798,-2.3763,-2.3753,-2.376,-2.3758,-2.3785,-2.3788,-2.3798,-2.3841,-2.3842,-2.3806,-2.3808,-2.3809,-2.381,0,0,0,0,0,0,0,-2.3688,-2.3694,-2.3754,-2.3738,-2.3739,-2.3734,-2.3738,-2.3767,-2.3776,-2.3754,-2.3753,-2.3758,-2.3785,-2.3795,-2.3798,-2.3843,-2.3806,-2.3808,-2.381,-2.3811,-2.392,-2.3921,0,0,0,0,0,0,-2.3686,-2.3692,-2.3753,-2.3755,-2.3711,-2.3737,-2.3741,-2.3756,-2.3775,-2.3777,-2.3759,-2.3757,-2.3791,-2.3795,-2.3799,-2.3847,-2.3809,-2.3811,-2.3813,-2.3918,-2.392,-2.3922,0,0,0,0,0,0,-2.3684,-2.3691,-2.3751,-2.3723,-2.3731,-2.374,-2.3757,-2.3758,-2.3768,-2.3779,-2.378,-2.3768,-2.3791,-2.3796,-2.3829,-2.3848,-2.3812,-2.3815,-2.3917,-2.3919,-2.3921,-2.3944,0,0,0,0,0,0,-2.3682,-2.3691,-2.3707,-2.3724,-2.3732,-2.3781,-2.3758,-2.3759,-2.3773,-2.3771,-2.3788,-2.3789,-2.379,-2.3825,-2.3832,-2.3851,-2.3817,-2.3915,-2.3918,-2.392,-2.3942,-2.3947,-2.3951,0,0,0,0,0,-2.3679,-2.3712,-2.3708,-2.3715,-2.3753,-2.3782,-2.3787,-2.3788,-2.3774,-2.379,-2.3797,-2.3789,-2.3846,-2.3829,-2.3836,-2.3856,-2.3914,-2.3917,-2.392,-2.3939,-2.3946,-2.3951,0,0,0,0,0,0,-2.3696,-2.3714,-2.371,-2.375,-2.3765,-2.378,-2.38,-2.3795,-2.3813,-2.3811,-2.381,-2.3814,-2.3848,-2.3856,-2.3837,-2.3896,-2.3877,-2.3882,-2.389,-2.3896,-2.3901,-2.3897,-2.3819,0,0,0,0,0,-2.3705,-2.3729,-2.3742,-2.3776,-2.3784,-2.3791,-2.3804,-2.3803,-2.3819,-2.3825,-2.3834,-2.3849,-2.3869,-2.3883,-2.3903,-2.3943,-2.3946,-2.3961,-2.3965,-2.3969,-2.3972,-2.3993,-2.3999,-2.3932,-2.3932,-2.3931,0,0,-2.3723,-2.3735,-2.375,-2.378,-2.3792,-2.3815,-2.3796,-2.3822,-2.3839,-2.3828,-2.386,-2.3868,-2.3884,-2.392,-2.3937,-2.3927,-2.3992,-2.3973,-2.3976,-2.3977,-2.3996,-2.4003,-2.4008,-2.3934,-2.3933,-2.3933,0,0,-2.3767,-2.378,-2.3808,-2.3821,-2.3839,-2.3843,-2.385,-2.3866,-2.3871,-2.3903,-2.3895,-2.3915,-2.3952,-2.3963,-2.3974,-2.4022,-2.4014,-2.4029,-2.4053,-2.4072,-2.4077,-2.4082,-2.4098,-2.4104,-2.4032,-2.4033,-2.4033,0,-2.3786,-2.3822,-2.3824,-2.385,-2.3863,-2.3855,-2.3883,-2.3895,-2.3918,-2.3927,-2.3917,-2.3962,-2.3973,-2.4011,-2.4022,-2.4032,-2.4039,-2.4026,-2.4077,-2.4081,-2.4086,-2.4101,-2.4107,-2.4034,-2.4034,-2.4034,-2.4034,0,-2.3845,-2.3869,-2.389,-2.3914,-2.3929,-2.3956,-2.3961,-2.3976,-2.3974,-2.3979,-2.4011,-2.4024,-2.4046,-2.4055,-2.4054,-2.4093,-2.4086,-2.4077,-2.4057,-2.4094,-2.4108,-2.4113,-2.4036,-2.4036,-2.4035,-2.4035,0,0,-2.39,-2.3924,-2.3932,-2.3941,-2.3961,-2.3979,-2.4006,-2.4028,-2.404,-2.4057,-2.4078,-2.4109,-2.41,-2.4112,-2.4112,-2.4129,-2.4165,-2.4117,-2.4117,-2.4124,-2.4207,-2.4213,-2.422,-2.4161,-2.4162,-2.4163,-2.4205,0,-2.3945,-2.3992,-2.3994,-2.4036,-2.4058,-2.4051,-2.4074,-2.4088,-2.4093,-2.4112,-2.4118,-2.4139,-2.4127,-2.4134,-2.4151,-2.4157,-2.4181,-2.4154,-2.4179,-2.418,-2.4173,-2.4228,-2.4235,-2.4274,-2.4211,-2.4212,-2.4213,0,-2.4003,-2.4021,-2.4066,-2.4081,-2.4091,-2.4111,-2.4131,-2.415,-2.4165,-2.4167,-2.4181,-2.4178,-2.4204,-2.4185,-2.422,-2.4201,-2.4212,-2.4216,-2.4218,-2.4219,-2.4197,-2.4229,-2.4287,-2.4293,-2.4222,-2.4221,-2.422,0,-2.4037,-2.4073,-2.4104,-2.4113,-2.4132,-2.4147,-2.4155,-2.4169,-2.4182,-2.4199,-2.4207,-2.4227,-2.4238,-2.4253,-2.4255,-2.4241,-2.4289,-2.4271,-2.4291,-2.4291,-2.43,-2.4299,-2.436,-2.431,-2.431,-2.4309,-2.4309,0,-2.4085,-2.4113,-2.412,-2.4139,-2.4169,-2.4171,-2.42,-2.4207,-2.422,-2.4239,-2.4235,-2.4253,-2.4255,-2.4274,-2.4275,-2.4303,-2.4308,-2.431,-2.431,-2.431,-2.4309,-2.4315,-2.4312,-2.4311,-2.4311,-2.431,-2.431,0,-2.4128,-2.4134,-2.4168,-2.4183,-2.4188,-2.4209,-2.4222,-2.4239,-2.4244,-2.4269,-2.4275,-2.4282,-2.4304,-2.4308,-2.4333,-2.4334,-2.4367,-2.4365,-2.4362,-2.4361,-2.438,-2.4378,-2.4445,-2.4454,-2.44,-2.44,-2.4401,0,-2.4158,-2.4179,-2.4197,-2.421,-2.4219,-2.424,-2.4253,-2.4256,-2.4269,-2.4288,-2.4303,-2.4324,-2.4341,-2.4376,-2.4383,-2.4402,-2.4399,-2.4422,-2.4402,-2.4401,-2.4398,-2.4396,-2.4397,-2.4425,-2.4425,-2.4426,-2.4426,0,-2.421,-2.4212,-2.4232,-2.4252,-2.4268,-2.4284,-2.4299,-2.431,-2.4314,-2.4329,-2.4352,-2.4365,-2.4391,-2.4411,-2.443,-2.4438,-2.4432,-2.4433,-2.4438,-2.4437,-2.4434,-2.4434,-2.437,-2.4431,-2.443,-2.443,-2.443,-2.4429,-2.4247,-2.4264,-2.4279,-2.4301,-2.4313,-2.4327,-2.4344,-2.4351,-2.437,-2.4391,-2.4392,-2.4416,-2.4429,-2.4454,-2.4463,-2.4481,-2.4474,-2.4482,-2.4484,-2.4485,-2.4486,-2.4432,-2.4485,-2.4484,-2.4484,-2.4484,-2.4484,0,-2.4297,-2.4307,-2.4326,-2.4348,-2.4364,-2.4359,-2.4375,-2.4389,-2.441,-2.4424,-2.4441,-2.4466,-2.4485,-2.4494,-2.4513,-2.4526,-2.4524,-2.4531,-2.4529,-2.4531,-2.4493,-2.4485,-2.4532,-2.4532,-2.4532,-2.4532,-2.4532,-2.4532,-2.4325,-2.4355,-2.4358,-2.4393,-2.4402,-2.4426,-2.4435,-2.4448,-2.4458,-2.4487,-2.4503,-2.4509,-2.452,-2.454,-2.4558,-2.456,-2.4566,-2.4574,-2.4575,-2.4539,-2.4534,-2.4529,-2.4522,-2.4576,-2.4576,-2.4611,-2.4611,-2.4612]},{"header":{"parameterUnit":"m.s-1","parameterCategory":1,"la1":30.2991,"la2":30.254,"lo1":-89.0895,"lo2":-89.0444,"dy":0.0017,"dx":0.0017,"nx":28,"ny":28,"refTime":"2024-06-03T03:00:00:Z","depth":0,"parameterNumber":3,"parameterNumberName":"V-component_of_WINDS"},"data":[0,0,0,0,0,0,0,0,0,0,0,0,0,0,0,0,0,0,0,0,0,0,0,0,0,0,0,0,0,0,0,0,0,0,0,0,0,0,0,0,0,0,0,0,0,0,0,0,0,0,0,0,0,0,0,0,0,0,4.5676,4.5677,0,4.577,4.5771,4.5772,4.5734,4.5732,4.573,4.5728,4.5818,4.5822,4.5827,0,0,0,0,0,0,0,0,0,0,0,0,0,4.5461,4.5465,4.5676,4.5677,4.5679,4.5769,4.5771,4.5772,4.5735,4.5732,4.5729,4.5727,4.5817,4.5822,4.5827,0,0,0,0,0,0,0,0,0,0,0,0,0,4.5554,4.5466,4.5676,4.5671,4.5672,4.5769,4.5771,4.5772,4.5735,4.5732,4.5729,4.5726,4.5815,4.5821,4.5828,4.5934,0,0,4.5848,4.5851,0,0,0,0,0,0,0,0,4.5549,4.5562,4.5671,4.5672,4.5672,4.5737,4.5728,4.5826,4.5736,4.5711,4.5728,4.5724,4.5793,4.5802,4.5826,4.5938,4.5942,4.5849,4.5853,4.5856,4.5857,0,0,0,0,0,0,0,4.5542,4.5558,4.5713,4.5672,4.5673,4.5662,4.5672,4.5746,4.5769,4.5713,4.571,4.5722,4.5793,4.582,4.5828,4.5943,4.5848,4.5854,4.5858,4.5861,4.6147,4.615,0,0,0,0,0,0,4.5536,4.5553,4.571,4.5716,4.5601,4.5669,4.568,4.572,4.5768,4.5773,4.5725,4.572,4.581,4.582,4.5831,4.5958,4.5855,4.5862,4.5866,4.6143,4.6148,4.6151,0,0,0,0,0,0,4.5532,4.5551,4.5706,4.5634,4.5653,4.5676,4.5721,4.5723,4.575,4.5778,4.5781,4.5748,4.5808,4.5822,4.5909,4.5961,4.5865,4.5871,4.6139,4.6145,4.615,4.6214,0,0,0,0,0,0,4.5526,4.5549,4.5591,4.5635,4.5657,4.5785,4.5724,4.5727,4.5762,4.5757,4.58,4.5804,4.5806,4.5899,4.5916,4.5968,4.5876,4.6134,4.6141,4.6148,4.6208,4.6221,4.6233,0,0,0,0,0,4.5518,4.5605,4.5594,4.5613,4.571,4.5788,4.58,4.5802,4.5766,4.5808,4.5825,4.5803,4.5953,4.5909,4.5927,4.5982,4.6131,4.6139,4.6147,4.6202,4.6218,4.6233,0,0,0,0,0,0,4.5564,4.561,4.5599,4.5702,4.5742,4.5781,4.5834,4.582,4.5869,4.5861,4.586,4.587,4.5961,4.598,4.593,4.6087,4.6036,4.6048,4.6071,4.6088,4.61,4.6093,4.5881,0,0,0,0,0,4.5587,4.5648,4.5684,4.5772,4.5792,4.581,4.5844,4.5842,4.5882,4.5898,4.5922,4.5961,4.6016,4.6053,4.6106,4.621,4.6219,4.6257,4.627,4.628,4.629,4.6347,4.6364,4.6178,4.6178,4.6178,0,0,4.5633,4.5666,4.5704,4.5782,4.5812,4.5874,4.5824,4.5891,4.5937,4.5908,4.5993,4.6012,4.6054,4.6151,4.6194,4.6169,4.6344,4.629,4.6298,4.6303,4.6357,4.6374,4.639,4.6184,4.6183,4.6182,0,0,4.575,4.5781,4.5858,4.589,4.5937,4.5948,4.5967,4.6009,4.6021,4.6107,4.6086,4.6139,4.6235,4.6266,4.6295,4.6424,4.6404,4.644,4.6506,4.6561,4.6576,4.6589,4.6635,4.6651,4.6451,4.6451,4.6451,0,4.5801,4.5896,4.5898,4.5968,4.6002,4.5981,4.6057,4.6088,4.6149,4.6172,4.6144,4.6265,4.6292,4.6395,4.6427,4.645,4.647,4.6435,4.6574,4.6587,4.6599,4.6643,4.666,4.6455,4.6455,4.6454,4.6454,0,4.5956,4.6022,4.6077,4.614,4.618,4.6253,4.6265,4.6305,4.63,4.6314,4.64,4.6432,4.6491,4.6515,4.651,4.6618,4.6601,4.6574,4.6522,4.6621,4.6662,4.6678,4.6461,4.6459,4.6458,4.6457,0,0,4.6104,4.6168,4.6188,4.6216,4.6267,4.6317,4.6388,4.6447,4.6482,4.6525,4.6584,4.6666,4.6641,4.6673,4.6671,4.6719,4.6819,4.6686,4.6686,4.6709,4.6939,4.696,4.6979,4.6807,4.681,4.6812,4.6936,0,4.6224,4.6352,4.6356,4.6472,4.6532,4.6512,4.6574,4.6611,4.6626,4.6677,4.6692,4.6751,4.6713,4.6733,4.678,4.6797,4.6865,4.6788,4.686,4.6863,4.685,4.7,4.7022,4.7137,4.6952,4.6954,4.6956,0,4.6382,4.6432,4.6554,4.6597,4.6622,4.6678,4.6733,4.6783,4.6824,4.6831,4.6868,4.6859,4.693,4.6877,4.6974,4.6922,4.6951,4.6964,4.6968,4.6975,4.6915,4.7011,4.7174,4.7191,4.6981,4.6979,4.6978,0,4.6477,4.6575,4.6661,4.6686,4.6738,4.6777,4.68,4.6838,4.6874,4.6921,4.6944,4.6998,4.7028,4.7069,4.7074,4.7035,4.7172,4.7119,4.7179,4.7179,4.7208,4.7206,4.7378,4.7228,4.7227,4.7227,4.7227,0,4.6611,4.6687,4.6705,4.6758,4.6841,4.6845,4.6927,4.6946,4.6981,4.7035,4.7021,4.7072,4.7077,4.7129,4.7133,4.7213,4.7226,4.7233,4.7233,4.7235,4.7234,4.7254,4.7246,4.7232,4.7231,4.723,4.7229,0,4.6732,4.6748,4.684,4.6882,4.6894,4.6954,4.6989,4.7039,4.7052,4.7122,4.7138,4.7158,4.7219,4.7229,4.73,4.7303,4.7398,4.739,4.7385,4.7384,4.7443,4.7437,4.7634,4.7659,4.7492,4.7494,4.7495,0,4.6817,4.6875,4.6924,4.6961,4.6986,4.7045,4.7082,4.7087,4.7126,4.7177,4.722,4.728,4.7329,4.7427,4.7447,4.7501,4.7494,4.7559,4.7502,4.7501,4.7495,4.7491,4.7497,4.757,4.7572,4.7573,4.7574,0,4.6965,4.697,4.7025,4.7082,4.7127,4.7172,4.7214,4.7245,4.7255,4.7299,4.7362,4.74,4.7474,4.7533,4.7587,4.7608,4.7593,4.7592,4.7609,4.7611,4.7605,4.7609,4.7415,4.7588,4.7586,4.7585,4.7585,4.7584,4.707,4.7121,4.7164,4.7225,4.7258,4.7298,4.7347,4.7367,4.7421,4.7482,4.7481,4.7551,4.7589,4.7661,4.7686,4.7739,4.7718,4.7742,4.7748,4.7754,4.776,4.7597,4.7749,4.7748,4.7748,4.7748,4.7747,0,4.7218,4.7245,4.7301,4.7362,4.741,4.7393,4.7439,4.748,4.7542,4.758,4.7629,4.7701,4.7759,4.7784,4.784,4.7877,4.7872,4.7892,4.7889,4.7894,4.7776,4.7756,4.7896,4.7896,4.7895,4.7895,4.7895,4.7895,4.7301,4.7386,4.7395,4.7496,4.7521,4.7591,4.7619,4.7655,4.7686,4.7768,4.7817,4.7833,4.7866,4.7925,4.7976,4.7982,4.8003,4.8026,4.8029,4.7917,4.7902,4.7888,4.7869,4.8031,4.8031,4.8143,4.8144,4.8145]}]]